STARLINK-1665, 46356

Orbit data source: Space-Track

STARLINK-1665, 46356 is a payload satellite owned by SpaceX/Seattle (US) in LEO that was launched on Thu, 03 Sep 2020 UTC via an FALCON 9 launch vehicle from the Air Force Eastern Test Range (AFETR). Payloads include a variety of satellites, spacecraft, and rockets equipped with specific instruments for various scientific and technological missions. These include communications satellites like Starlink; space stations such as the ISS; scientific satellites like the Hubble; Earth observation satellites from companies like Planet Labs, Umbra, and HawkEye 360; GPS; miniature CubeSats for education and research; and military/defense satellites.

Loading next visibility...
STARLINK-1665 details
Identifier
46356, 2020-062AH
Orbit
LEO
Last TLE update12 hours ago
Origin
Flag of USSpaceX/Seattle (US)
ManufacturerSpaceX/Seattle
MissionOperational Commercial Communications
Bus & MotorSTARLINK, Unknown motor
Mass260 kg wet, ~248 kg dry
Launch date (UTC)
2020-09-03 (4 years ago)
Launch vehicle
FALCON 9
Launch site
Air Force Eastern Test Range (AFETR)
Object type
Payload
Rocket body
Debris
Shape & HBRBox + 1 Pan, 8.86 m
Radar Cross Section13.562 m², Large (>1 m²)

Expand to show TLE details & history

TLE from 12 hours ago
0 STARLINK-1665
1 46356U 20062AH  24346.43858181  .00022754  00000-0  15425-2 0  9990
2 46356  53.0542 251.3788 0001175  89.1474 270.9650 15.06376013235995
Epoch: 2024-12-11T10:31Z
Definitive object data (Epoch: 2024-12-11T10:31:33.468Z)
Latitude0.00002°
Longitude12.8561°
Altitude548.151 km
Speed7.589 km/s
True Right ascension16h 45m 30s
True Declination0° 00' 00"
Sunlit
Object was in daylight at TLE epoch
Visualization TLE readout
Latitude-50.30396°
Longitude-53.7626°
Altitude565.365 km
Speed7.578 km/s
Apparent Right ascension10h 45m 06s
Apparent Declination-47° 22' 28"
Sunlit
Object is in daylight
Visualization observer readout
Local Sidereal Time21:20:21
Azimuth236.962° WSW
Elevation-73.024°
Doppler factor1
Orbital elements
Apogee altitude548.37 km
Perigee altitude546.742 km
Semi-major axis6,925.693 km
Eccentricity0.0001175
Inclination53.0542°
RAAN251.3788°
Arg. of periapsis89.1474°
True anomaly270.95154°
Mean anomaly270.965°
Eccentric anomaly270.95827°
Mean motion3.76572 °/min
BSTAR0.0015425
Orbital period95.6 mins
Loading maneuver chart data...
Loading historical data...
Loading historical data...
Loading historical data...
Loading historical data...
Loading historical data...
Loading historical data...
Loading historical data...

STARLINK-1665 Visibility forecast

Observer location: undefined°, undefined

Span
Click to sort rows by Start time (UTC) header in descending order
Start Az.
Max El. time (UTC)
Max El. Az.
Max El.
End time (UTC)
End Az.
6 mins2024-12-12 02:56:15.344Z323.562° NNW2024-12-12 02:59:15.344Z39.143° NE37.134°2024-12-12 03:02:15.344Z106.561° ESE
5 mins2024-12-12 04:36:15.344Z272.954° WNW2024-12-12 04:38:15.344Z235.569° WSW21.618°2024-12-12 04:41:15.344Z181.832° SSW
6 mins2024-12-12 20:09:15.344Z211.389° SW2024-12-12 20:11:15.344Z146.92° SSE42.137°2024-12-12 20:15:15.344Z55.693° ENE
5 mins2024-12-12 21:49:15.344Z295.167° NW2024-12-12 21:51:15.344Z337.289° NNW22.881°2024-12-12 21:54:15.344Z28.885° NE
|